Main page
METAR-TAF:

METAR-TAF

Airports :

Castellón de la Plana, Spain

Castellón–Costa Azahar Airport

latitude: 40-12-35N, longitude: 0-04-11E, elevation: 360 m

Current weather observation

The report was made 13 minutes ago, at 04:30 UTC
Wind 4 kt from the Northeast
Temperature 11°C
Humidity 100%
Pressure 1012 hPa
Visibility: 3500 m
mist

METAR: LECH 270430Z AUTO 04004KT 3500 BR NSC 11/11 Q1012

Time: 06:43 (04:43 UTC)


TAF: missing

Weather observations and forecasts of more than 4000 airports (METAR and TAF reports).

The available stations are represented by yellow and red dots on the map.

Hover mouse over dot to see the name of the station.

Then click to see weather observations and forecasts.

To change the map : click on the green buttons with a black cross to zoom in, on the green button with a dash to zoom out, or on the green arrows for adjacent maps.


METAR-TAF: